Preview of NWS' New Version of Forecast
This preview is not operational and should not be used for support decisions.

Regional Weather Roundup (RWR)

Issued by National Weather Service (NWS)

                            
000
ASUS42 KTBW 170618
RWRFL 
FLORIDA REGIONAL WEATHER ROUNDUP
NATIONAL WEATHER SERVICE TAMPA BAY RUSKIN FL
200 AM EDT WED JUL 17 2019

NOTE: "FAIR" INDICATES FEW OR NO CLOUDS BELOW 12,000 FEET WITH NO
SIGNIFICANT WEATHER AND/OR OBSTRUCTIONS TO VISIBILITY.

FLZ001>010-012>015-112-114-115-170700-
PANHANDLE FLORIDA
  
CITY           SKY/WX    TMP DP  RH WIND       PRES   REMARKS
PENSACOLA      FAIR      80  78  94 SW3       30.09F                  
PENSACOLA NAS  FAIR      77  76  96 SW3       30.09F                  
MILTON NAS     FAIR      75  74  96 CALM      30.10F                  
CRESTVIEW      FAIR      73  70  90 CALM      30.11F                  
DUKE FIELD     FAIR      74  73  96 CALM      30.10                   
VALPARAISO     FAIR      81  74  79 CALM      30.09F                  
TRI COUNTY     FAIR      76  75  97 CALM      30.11F                  
PANAMA CITY    FAIR      77  74  90 CALM      30.09F                  
TYNDALL AFB    FAIR      78  76  92 CALM      30.09F                  
APALACHICOLA   FAIR      78  75  90 N3        30.11F                  

STATION/POSITION SKY/WX   TEMP    WIND        PRES    WAVE   SWELL
                          AIR SEA DIR/SP/G            HT/PER HT/PER
                          (F)     (DEG/KT/KT) (MB)    (FT/S) (FT/S)
30.1N   87.6W              83 85  190/  6/  8 1019.0F   2/ 6   2/ 6
29.2N   88.2W              83 83  160/  6/  8 1019.3F   2/ 6   2/ 6
28.8N   86.0W              85 86  160/  4/  6 1019.4F   1/ 6   2/ 6
PANAMA CITY BEAC           85 87  230/  2/  3 1020.0
TOWER C                    84     180/  2/  2 1019.6F
28.5N   84.5W              84     260/  2/  2 1019.9F   1/ 6   2/ 6

$$
FLZ011-016>038-118-127-128-134-139-239-170700-
NORTH FLORIDA
  
CITY           SKY/WX    TMP DP  RH WIND       PRES   REMARKS
MARIANNA       FAIR      76  76 100 CALM      30.09F                  
TALLAHASSEE    FAIR      79  77  94 CALM      30.11F                  
PERRY          FAIR      80  78  96 CALM      30.12F                  
LIVE OAK       PTCLDY    79  79 100 CALM      30.11F                  
CROSS CITY     FAIR      78  76  94 CALM      30.12S                  
LAKE CITY      FAIR      79  73  83 W3        30.12F                  
GAINESVILLE    FAIR      76  75  97 CALM      30.15S                  
WILLISTON      FAIR      74  74  98 CALM      30.13S                  
PALATKA        FAIR      75  73  94 CALM      30.12F                  
MAYPORT NAS    FAIR      80  74  81 SW5       30.11F                  
JACKSONVILLE   FAIR      79  74  84 NW3       30.10F                  
JAX NAS        FAIR      84  72  67 CALM      30.11F                  
JAX CECIL      FAIR      75  73  94 CALM      30.11F                  
FERNANDINA BEA FAIR      81  76  84 W3        30.11F                  
ST AUGUSTINE   FAIR      79  75  87 SW3       30.12F                  
PALM COAST     FAIR      77  74  90 CALM      30.12F                  

STATION/POSITION SKY/WX   TEMP    WIND        PRES    WAVE   SWELL
                          AIR SEA DIR/SP/G            HT/PER HT/PER
                          (F)     (DEG/KT/KT) (MB)    (FT/S) (FT/S)
SHELL POINT      NOT AVBL
KEATON BEACH               81      30/  4/  5 1019.5F
CEDAR KEY                  85      40/  4/  5 1020.0F
FERNANDINA                 86 84   CALM  /  1 1020.4F
30.7N   81.3W                 83                N/A     1/ 3
MAYPORT                    82 82  210/  2/  3 1020.2F
31.4N   80.9W              84 85  220/  8/ 10 1019.4F   1/11   2/11
ST AUGUSTINE               80 77  200/  4/  5 1019.9F

$$
FLZ040-043>046-052-053-057-058-063-144-170700-
INTERIOR CENTRAL FLORIDA
  
CITY           SKY/WX    TMP DP  RH WIND       PRES   REMARKS
OCALA          FAIR      76  72  87 CALM      30.13F                  
LEESBURG       FAIR      76  72  87 CALM      30.13F                  
SANFORD        FAIR      81  75  82 SW5       30.12F                  
ORLANDO EXEC   FAIR      82  76  81 S6        30.13S                  
ORLANDO INTL   FAIR      79  75  87 CALM      30.13S                  
KISSIMMEE      FAIR      80  77  90 CALM      30.13F                  
WINTER HAVEN   FAIR      80  72  76 N5        30.14F                  
LAKELAND       FAIR      77  72  83 CALM      30.13F                  
BARTOW         FAIR      77  73  88 CALM      30.12F                  
SEBRING        FAIR      78  76  93 N3        30.12F                  
OKEECHOBEE     FAIR      75  73  94 CALM      30.11F                  

$$
FLZ041-047-054-059-064-141-147-170700-
EAST CENTRAL FLORIDA
  
CITY           SKY/WX    TMP DP  RH WIND       PRES   REMARKS
DAYTONA BEACH  FAIR      79  78  97 CALM      30.12F                  
DELAND         FAIR      77  73  88 CALM      30.12F                  
JFK SPACE CTR  CLEAR     80  68  65 S3        30.11                   
CAPE CANAVERAL CLEAR     81  55  40 S7        30.10F                  
PATRICK AFB    FAIR      83  78  87 S6        30.11F                  
MELBOURNE      FAIR      82  74  76 S5        30.11F                  
VERO BEACH     FAIR      81  75  82 S3        30.11F                  
FT PIERCE      FAIR      75  72  90 CALM      30.11F                  
STUART         FAIR      79  73  83 CALM      30.13F                  

STATION/POSITION SKY/WX   TEMP    WIND        PRES    WAVE   SWELL
                          AIR SEA DIR/SP/G            HT/PER HT/PER
                          (F)     (DEG/KT/KT) (MB)    (FT/S) (FT/S)
28.5N   80.2W              83 83  170/  8/ 10 1019.6F   1/ 9
28.9N   78.5W              84 86  170/  8/ 10   N/A     2/ 9   2/ 9
TRIDENT PIER               82 84  160/  8/ 11 1021.1F
28.4N   80.5W                 83                N/A     1/ 8
27.5N   80.2W                 83                N/A     1/11

$$
FLZ050-056-061-142-242-148-248-149-249-151-251-155-255-
160-260-170700-
WEST CENTRAL FLORIDA
  
CITY           SKY/WX    TMP DP  RH WIND       PRES   REMARKS
CRYSTAL RIVER  FAIR      75  72  88 CALM      30.12F                  
INVERNESS      FAIR      73  73 100 CALM      30.13F                  
BROOKSVILLE    FAIR      75  73  93 CALM      30.13F                  
CLEARWATER AIR MOCLDY    77  72  83 CALM      30.12F                  
ST PETE CLEARW FAIR      79  72  79 NE5       30.12S                  
TAMPA INTL     FAIR      77  74  90 CALM      30.12F                  
TAMPA EXEC     MOCLDY    75  73  94 CALM      30.13F                  
PLANT CITY     FAIR     N/A N/A N/A MISG      30.14F                  
MACDILL AFB    FAIR      76  72  86 E5        30.11                   
PETER O KNIGHT CLOUDY   N/A N/A N/A NE3       30.12F                  
ST PETERSBURG  FAIR      81  72  74 E8        30.10F                  
SARASOTA       FAIR      78  74  87 NE5       30.09F                  
VENICE         FAIR      77  75  94 SE3       30.11F                  

STATION/POSITION SKY/WX   TEMP    WIND        PRES    WAVE   SWELL
                          AIR SEA DIR/SP/G            HT/PER HT/PER
                          (F)     (DEG/KT/KT) (MB)    (FT/S) (FT/S)
27.3N   84.2W                 86                N/A     1/ 4
CLEARWATER BEACH           80 89   40/  6/  7 1020.5
MIDDLE TAMPA BAY           79     110/  8/  9 1020.0F
VENICE                     77 85   90/  5/  6 1019.2F

$$
FLZ066-069-070-075>078-162-262-165-265-170700-
SOUTHWEST FLORIDA AND KEYS
  
CITY           SKY/WX    TMP DP  RH WIND       PRES   REMARKS
PUNTA GORDA    FAIR      77  76  96 E3        30.12F                  
FT MYERS       FAIR      77  75  93 CALM      30.10F                  
SOUTHWEST INTL FAIR      78  75  90 E3        30.10F                  
MARCO ISLAND   FAIR      78  77  96 MISG      30.11F                  
IMMOKALEE      CLOUDY    77  77 100 CALM      30.08F                  
MARATHON       FAIR      85  72  65 E6        30.09F                  
KEY WEST NAS   FAIR      86  74  67 E13       30.08F                  
KEY WEST INTL  FAIR      84  75  74 E13       30.09F                  

STATION/POSITION SKY/WX   TEMP    WIND        PRES    WAVE   SWELL
                          AIR SEA DIR/SP/G            HT/PER HT/PER
                          (F)     (DEG/KT/KT) (MB)    (FT/S) (FT/S)
NAPLES                     80 88              1019.4F
26.0N   85.6W              84 85  100/  8/ 10 1019.1F   2/ 5   2/ 5
DRY TORTUGAS               85      90/ 13/ 14 1018.7F
SAND KEY                   84     100/ 14/ 17 1017.5
SOMBRERO KEY               84      90/ 11/ 14 1018.9
LONG KEY                   85                 1018.2F

$$
FLZ067-068-071>074-168-172>174-170700-
SOUTHEAST FLORIDA 
  
CITY           SKY/WX    TMP DP  RH WIND       PRES   REMARKS
W PALM BEACH   FAIR      82  73  74 SE5       30.11F                  
FT LAUDER-EXEC FAIR      83  74  74 E8        30.10F                  
FT LAUDERDALE  FAIR      84  73  69 E8        30.09F                  
POMPANO BEACH  FAIR      85  74  69 E7        30.10F                  
PEMBROKE PINES FAIR      84  72  67 E5        30.11F                  
OPA LOCKA      FAIR      82  77  84 E3        30.11F                  
MIAMI          FAIR      84  73  69 E5        30.10F                  
WEST KENDALL   FAIR      80  75  84 CALM      30.10F                  
HOMESTEAD      FAIR      82  76  80 NE6       30.09F                  

STATION/POSITION SKY/WX   TEMP    WIND        PRES    WAVE   SWELL
                          AIR SEA DIR/SP/G            HT/PER HT/PER
                          (F)     (DEG/KT/KT) (MB)    (FT/S) (FT/S)
PORT EVERGLADES            85     100/  5/  9 1019.3F
VIRGINIA KEY               85 88   60/  8/ 11 1019.2
LAKE WORTH                 84 86  140/  9/  9 1021.0F
FOWEY ROCKS                85 86  100/ 10/ 12 1019.4F
SETTLEMENT POINT           82     150/  5/  8 1019.9F

$$